| time (UTC) | temp C | wind direction | speed KPH | gust KPH | rain 1hr cm | rain 24hr cm | rain mn cm | humidity % | barometer mb |
| 20260503053100 | 11 | 18 | 0.0 | 1.6 | 0.00 | 0.00 | 0.00 | 74 | 1018.9 |
| 20260503051600 | 10 | 18 | 0.0 | 1.6 | 0.00 | 0.00 | 0.00 | 76 | 1018.9 |
| 20260503050059 | 10 | 18 | 0.0 | 0.0 | 0.00 | 0.00 | 0.00 | 79 | 1018.9 |
| 20260503044609 | 10 | 18 | 0.0 | 0.0 | 0.00 | 0.00 | 0.00 | 79 | 1018.9 |
| 20260503043059 | 9 | 18 | 0.0 | 0.0 | 0.00 | 0.00 | 0.00 | 79 | 1018.9 |
| 20260503041555 | 10 | 18 | 0.0 | 0.0 | 0.00 | 0.00 | 0.00 | 78 | 1018.8 |
| 20260503034559 | 10 | 18 | 0.0 | 0.0 | 0.00 | 0.00 | 0.00 | 76 | 1018.8 |
| 20260503033053 | 10 | 18 | 0.0 | 0.0 | 0.00 | 0.00 | 0.00 | 76 | 1018.7 |
| 20260503031550 | 11 | 18 | 0.0 | 0.0 | 0.00 | 0.00 | 0.00 | 75 | 1018.8 |
| 20260503030113 | 11 | 18 | 0.0 | 0.0 | 0.00 | 0.00 | 0.00 | 76 | 1018.8 |
| 20260503024548 | 11 | 18 | 0.0 | 1.6 | 0.00 | 0.00 | 0.00 | 76 | 1018.8 |
| 20260503023046 | 10 | 18 | 0.0 | 0.0 | 0.00 | 0.00 | 0.00 | 76 | 1018.8 |
| 20260503021545 | 10 | 18 | 0.0 | 0.0 | 0.00 | 0.00 | 0.00 | 76 | 1018.9 |
| 20260503020044 | 10 | 18 | 0.0 | 0.0 | 0.00 | 0.00 | 0.00 | 75 | 1019.0 |
| 20260503014557 | 11 | 18 | 0.0 | 0.0 | 0.00 | 0.00 | 0.00 | 74 | 1019.0 |
| 20260503013041 | 11 | 18 | 0.0 | 0.0 | 0.00 | 0.00 | 0.00 | 73 | 1019.1 |
| 20260503011547 | 11 | 18 | 0.0 | 0.0 | 0.00 | 0.00 | 0.00 | 72 | 1019.1 |
| 20260503010036 | 11 | 18 | 0.0 | 0.0 | 0.00 | 0.00 | 0.00 | 71 | 1019.2 |
| 20260503004538 | 11 | 18 | 0.0 | 0.0 | 0.00 | 0.00 | 0.00 | 70 | 1019.3 |
| 20260503003043 | 11 | 18 | 0.0 | 0.0 | 0.00 | 0.00 | 0.00 | 71 | 1019.3 |
| 20260503001531 | 12 | 18 | 0.0 | 0.0 | 0.00 | 0.00 | 0.00 | 70 | 1019.4 |
| 20260503000033 | 12 | 18 | 0.0 | 0.0 | 0.00 | 0.00 | 0.00 | 70 | 1019.5 |
| 20260502234527 | 12 | 18 | 0.0 | 0.0 | 0.00 | 0.00 | 0.00 | 69 | 1019.6 |
| 20260502233025 | 12 | 18 | 0.0 | 0.0 | 0.00 | 0.00 | 0.00 | 69 | 1019.6 |
| 20260502231522 | 12 | 18 | 0.0 | 0.0 | 0.00 | 0.00 | 0.00 | 68 | 1019.8 |
| 20260502230019 | 13 | 18 | 0.0 | 0.0 | 0.00 | 0.00 | 0.00 | 67 | 1019.9 |
| 20260502224517 | 13 | 18 | 0.0 | 0.0 | 0.00 | 0.00 | 0.00 | 67 | 1020.0 |
| 20260502223016 | 13 | 18 | 0.0 | 0.0 | 0.00 | 0.00 | 0.00 | 66 | 1020.1 |
| 20260502221514 | 13 | 18 | 0.0 | 0.0 | 0.00 | 0.00 | 0.00 | 65 | 1020.1 |
| 20260502220013 | 14 | 18 | 0.0 | 0.0 | 0.00 | 0.00 | 0.00 | 64 | 1020.2 |
| 20260502214513 | 14 | 18 | 0.0 | 0.0 | 0.00 | 0.00 | 0.00 | 63 | 1020.2 |
| 20260502213032 | 15 | 18 | 0.0 | 0.0 | 0.00 | 0.00 | 0.00 | 62 | 1020.2 |
| 20260502211510 | 15 | 18 | 0.0 | 0.0 | 0.00 | 0.00 | 0.00 | 61 | 1020.3 |
| 20260502210011 | 16 | 18 | 0.0 | 0.0 | 0.00 | 0.00 | 0.00 | 59 | 1020.3 |
| 20260502204509 | 16 | 18 | 0.0 | 1.6 | 0.00 | 0.00 | 0.00 | 58 | 1020.4 |
| 20260502203008 | 16 | 18 | 0.0 | 0.0 | 0.00 | 0.00 | 0.00 | 58 | 1020.4 |
| 20260502201514 | 16 | 18 | 0.0 | 0.0 | 0.00 | 0.00 | 0.00 | 59 | 1020.4 |
| 20260502200007 | 16 | 18 | 0.0 | 0.0 | 0.00 | 0.00 | 0.00 | 58 | 1020.5 |
| 20260502194505 | 16 | 18 | 0.0 | 0.0 | 0.00 | 0.00 | 0.00 | 56 | 1020.4 |
| 20260502193005 | 17 | 18 | 0.0 | 0.0 | 0.00 | 0.00 | 0.00 | 55 | 1020.3 |
| 20260502191507 | 17 | 18 | 0.0 | 0.0 | 0.00 | 0.00 | 0.00 | 54 | 1020.3 |
| 20260502190008 | 18 | 18 | 0.0 | 0.0 | 0.00 | 0.00 | 0.00 | 52 | 1020.3 |
| 20260502184502 | 18 | 18 | 0.0 | 0.0 | 0.00 | 0.00 | 0.00 | 51 | 1020.2 |
| 20260502183002 | 20 | 18 | 0.0 | 0.0 | 0.00 | 0.00 | 0.00 | 48 | 1020.1 |
| 20260502181502 | 20 | 18 | 0.0 | 3.2 | 0.00 | 0.00 | 0.00 | 45 | 1020.0 |
| 20260502163053 | 22 | 30 | 1.6 | 4.8 | 0.00 | 0.00 | 0.00 | 37 | 1020.4 |
| 20260502161553 | 22 | 32 | 1.6 | 8.0 | 0.00 | 0.00 | 0.00 | 37 | 1020.6 |
| 20260502151600 | 23 | 37 | 0.0 | 9.7 | 0.00 | 0.00 | 0.00 | 36 | 1021.0 |
| 20260502123025 | 25 | 158 | 0.0 | 1.6 | 0.00 | 0.00 | 0.00 | 32 | 1023.1 |
| 20260502121527 | 26 | 303 | 0.0 | 3.2 | 0.00 | 0.00 | 0.00 | 32 | 1023.2 |
| 20260502114520 | 25 | 24 | 0.0 | 11.3 | 0.00 | 0.00 | 0.00 | 32 | 1023.6 |
| 20260502113018 | 25 | 42 | 0.0 | 8.0 | 0.00 | 0.00 | 0.00 | 30 | 1023.8 |
| 20260502111516 | 24 | 168 | 1.6 | 6.4 | 0.00 | 0.00 | 0.00 | 32 | 1023.9 |
| 20260502110014 | 25 | 17 | 0.0 | 12.9 | 0.00 | 0.00 | 0.00 | 31 | 1024.2 |
| 20260502104511 | 26 | 14 | 3.2 | 6.4 | 0.00 | 0.00 | 0.00 | 29 | 1024.5 |
| 20260502103017 | 26 | 4 | 1.6 | 11.3 | 0.00 | 0.00 | 0.00 | 29 | 1024.6 |
| 20260502101507 | 25 | 22 | 1.6 | 0.0 | 0.00 | 0.00 | 0.00 | 30 | 1024.8 |
| 20260502080103 | 24 | 25 | 0.0 | 3.2 | 0.00 | 0.00 | 0.00 | 35 | 1025.6 |
| 20260502070040 | 22 | 27 | 0.0 | 1.6 | 0.00 | 0.00 | 0.00 | 44 | 1025.9 |
| 20260502064550 | 20 | 26 | 0.0 | 1.6 | 0.00 | 0.00 | 0.00 | 48 | 1025.9 |
| 20260502063035 | 17 | 25 | 0.0 | 1.6 | 0.00 | 0.00 | 0.00 | 53 | 1025.9 |
| 20260502061526 | 14 | 26 | 0.0 | 0.0 | 0.00 | 0.00 | 0.00 | 59 | 1026.0 |
| 20260502060021 | 12 | 26 | 0.0 | 0.0 | 0.00 | 0.00 | 0.00 | 64 | 1025.9 |
| 20260502054518 | 11 | 26 | 0.0 | 0.0 | 0.00 | 0.00 | 0.00 | 66 | 1025.9 |